Regional Weather Roundup
Issued by NWS

Home | Current Version | Previous Version | Graphics & Text | Print | Product List | Glossary On
Versions: 1 2 3 4 5 6 7 8 9 10 11 12 13 14 15 16 17 18 19 20 21 22 23 24 25 26 27 28 29 30 31 32 33 34 35 36 37 38 39 40 41 42 43 44 45 46 47 48 49 50
000
ASUS43 KMPX 230810
RWRMN
WEATHER ROUNDUP FOR MINNESOTA
NATIONAL WEATHER SERVICE TWIN CITIES/CHANHASSEN MN
300 AM CDT THU OCT 23 2014


NOTE: "FAIR" INDICATES FEW OR NO CLOUDS BELOW 12,000 FEET WITH NO
SIGNIFICANT WEATHER AND/OR OBSTRUCTIONS TO VISIBILITY. N/A MEANS
CURRENT SKY AND/OR WEATHER CONDITIONS ARE NOT AVAILABLE.

MNZ060>063-068>070-230900-
   Twin Cities Metro

CITY           SKY/WX    TMP DP  RH WIND       PRES   REMARKS
TWIN CITIES    LGT RAIN  51  48  89 SE5       30.01S FOG
ST PAUL        CLOUDY    52  46  80 SE7       30.02F
CRYSTAL        LGT RAIN  54  49  83 S8        29.99R
BLAINE         DRIZZLE   54  48  82 S12       29.99S
LAKEVILLE      CLOUDY    52  45  76 S8        30.01S
EDEN PRAIRIE   LGT RAIN  52  50  93 S9        30.00R FOG
SOUTH ST PAUL  CLOUDY    52  46  78 SE6       30.01S
LAKE ELMO      CLOUDY    52  45  76 S10       30.02S
$$
MNZ001>005-007-008-013>017-022>024-027-028-230900-
   Northwest Minnesota

CITY           SKY/WX    TMP DP  RH WIND       PRES   REMARKS
BEMIDJI        MOCLDY    49  48  97 S6        29.90S
HALLOCK        CLEAR     46  45  93 S9        29.80S
ROSEAU         MOCLDY    48  45  87 S8        29.82S
WARROAD        PTCLDY    50  46  87 S3        29.83S
THIEF RVR FALL CLEAR     48  46  93 S9        29.86S
CROOKSTON      CLEAR     45  45 100 S8        29.86S
FOSSTON        CLEAR     48  46  93 S10       29.88F
DETROIT LAKES  CLEAR     50  48  93 SW5       29.93R
MOORHEAD       CLEAR     46  46 100 S6        29.91S
PARK RAPIDS    CLOUDY    52  52 100 SW7       29.92S
MAHNOMEN       FAIR      48  47  97 S10       29.88F
$$
MNZ006-009>011-018-025>026-230900-
   North Central Minnesota

CITY           SKY/WX    TMP DP  RH WIND       PRES   REMARKS
BAUDETTE       CLOUDY    51  47  86 S9        29.86R
FLAG ISLAND    CLOUDY    50  48  93 S10       29.81S FOG
INTL FALLS     LGT RAIN  48  46  93 S6        29.89F
WASKISH        CLOUDY    52  48  87 CALM      29.88S
BIG FORK       CLOUDY    48  46  93 S5        29.92F
LONGVILLE      CLOUDY    50  48  93 S3        29.93S
GRAND RAPIDS   CLOUDY    48  45  87 S10       29.94S
CRANE LAKE     RAIN      46  45  93 S7        29.95S
ORR            CLOUDY    46  43  87 S5        29.91S
COOK           CLOUDY    46  43  87 S6        29.95S
WALKER         CLOUDY    50  50  99 SW5       29.92R FOG
$$
MNZ012-019>021-037-230900-
   Northeast Minnesota

CITY           SKY/WX    TMP DP  RH WIND       PRES   REMARKS
DULUTH         CLOUDY    52  38  58 S9        29.97F
ELY            MOCLDY    50  36  57 S8        29.97R
HIBBING        LGT RAIN  48  43  82 S6        29.95F
EVELETH        DRIZZLE   46  39  76 S3        29.97S
DULUTH HARBOR  CLOUDY    54  43  66 S10       29.99S
TWO HARBORS    MOCLDY    45  30  57 CALM      29.98S
SILVER BAY     MOCLDY    43  39  87 CALM      29.98F
GRAND MARAIS     N/A     45  40  82 NE5       30.04S
G MARAIS ARPRT MOCLDY    43  34  70 SE6       30.03F
$$
MNZ029>031-032-039>041-046>048-054>057-064-230900-
   West Central Minnesota

CITY           SKY/WX    TMP DP  RH WIND       PRES   REMARKS
FERGUS FALLS   FOG       46  45  93 S6        29.94S VSB 1/2
WHEATON        CLEAR     45  43  93 S6        29.95S
MORRIS         FOG       46  46 100 S6        29.95S VSB<1/4
ALEXANDRIA     PTCLDY    51  50  96 SW7       29.96F FOG
ELBOW LAKE     FOG       46  46 100 S7        29.94S VSB 1/4
WADENA         FOG       48  48 100 S5        29.94R VSB 1/4
GLENWOOD       PTCLDY    52  52 100 SW6       29.96F FOG
APPLETON       CLEAR     52  48  87 SW5       29.96S
BENSON         CLEAR     50  48  93 W6        29.97S
ORTONVILLE     CLEAR     48  46  93 CALM      29.95F
MADISON          N/A     50  48  93 SW5       29.97S FOG
WILLMAR          N/A     54  52  94 SW8       29.99S
$$
MNZ033>034-036-042>043-049>051-058-059-230900-
   Central Minnesota

CITY           SKY/WX    TMP DP  RH WIND       PRES   REMARKS
ST CLOUD       LGT RAIN  53  50  89 SE7       29.96F
SAUK CENTRE    PTSUNNY   52  51  99 CALM      29.97R FOG
PAYNESVILLE    CLOUDY    52  52 100 S6        29.97S FOG
AITKIN         MIX PCPN  52  46  82 S8        29.94S
PINE RIVER     CLOUDY    50  48  93 S5        29.97S
BRAINERD       LGT RAIN  50  49  96 S8        29.95S
STAPLES        CLOUDY    52  50  93 S3        29.94S FOG
LONG PRAIRIE   FOG       52  52 100 S3        29.96R VSB 1
LITTLE FALLS   CLOUDY    50  48  93 S3        29.96R
LITCHFIELD     CLOUDY    55  55 100 CALM      29.98R FOG
BUFFALO        LGT RAIN  52  49  89 S3        29.99S
MAPLE LAKE     CLOUDY    53  52  96 S6        29.98F
$$
MNZ037-044-045-052-053-230900-
   East Central Minnesota

CITY           SKY/WX    TMP DP  RH WIND       PRES   REMARKS
PRINCETON      HVY RAIN  52  50  93 S6        29.98S
MORA           CLOUDY    48  43  81 CALM      29.99F
CAMBRIDGE      HVY RAIN  54  43  66 S6        29.97R
RUSH CITY      CLOUDY    52  42  69 S7        29.99S
MOOSE LAKE     DRIZZLE   50  41  71 S6        29.96S
HINCKLEY       LGT RAIN  50  45  81 S3        29.99S
CLOQUET        CLOUDY    52  39  62 S7        29.97S
MCGREGOR       CLOUDY    48  46  93 S7        29.97R
$$
MNZ071>073-080-081-089-090-097-098-230900-
   Southwest Minnesota

CITY           SKY/WX    TMP DP  RH WIND       PRES   REMARKS
MONTEVIDEO     CLEAR     52  52 100 W3        29.99R
GRANITE FALLS  PTCLDY    49  49  99 SW6       30.00S
CANBY          CLEAR     51  49  93 SW10G16   29.98F
MARSHALL       CLEAR     52  46  82 W8        29.98S
REDWOOD FALLS  MOCLDY    55  53  93 SW9       29.99R
OLIVIA         MOCLDY    54  52  94 SW5       29.98R
PIPESTONE      FOG       52  50  93 W6        30.01S VSB 1/4
WINDOM         CLOUDY    55  54  94 SW6       30.01R
WORTHINGTON    CLOUDY    54  52  94 W5        30.03R
JACKSON        CLOUDY    59  55  88 SW6       30.01S
TRACY          PTCLDY    52  51  95 SW8       30.00R
SLAYTON        MOCLDY    51  51 100 CALM      30.02R
$$
MNZ065>067-074>077-082>085-091>093-230900-
   South Central Minnesota

CITY           SKY/WX    TMP DP  RH WIND       PRES   REMARKS
MANKATO        CLOUDY    55  45  67 S12       30.01S
NEW ULM        CLOUDY    55  55 100 SW6       30.00R
ST JAMES       CLOUDY    57  55  94 S8        30.01S
FAIRMONT       CLOUDY    54  48  82 S8        30.02S
GLENCOE        CLOUDY    54  53  97 S8        29.99R FOG
FARIBAULT      HVY RAIN  54  46  76 S10       30.03R
OWATONNA       RAIN      52  45  76 S13       30.03R
WASECA         CLOUDY    50  43  76 S13       30.04R
ALBERT LEA     CLOUDY    54  43  66 S9G16     30.04S
$$
MNZ078>079-086>088-094>096-230900-
   Southeast Minnesota

CITY           SKY/WX    TMP DP  RH WIND       PRES   REMARKS
ROCHESTER      CLOUDY    50  43  77 S13G21    30.06F
STANTON        CLOUDY    55  43  63 S9        30.01S
DODGE CENTER   CLOUDY    52  43  71 S15       30.04S
WINONA         MOCLDY    52  43  71 SE7       30.08F
AUSTIN         CLOUDY    52  43  71 S10G17    30.05S
PRESTON        RAIN      48  41  77 S13       30.09S
$$
ABBREVIATIONS USED IN REMARKS
   TC - TEMPERATURES IN CELSIUS
  WCI - WIND CHILL INDEX
   HX - HEAT INDEX
  VSB - VISIBILITY
$$



USA.gov is the U.S. government's official web portal to all federal, state and local government web resources and services.